Lake Gregory Weather Center

Moon Phase Calendar



Lake Gregory Water Level
Online Cameras

 


      

Current Conditions in Crestline
11/28/2022 1:28:53 PM

48°F
Feels Like 47
Haze
Humidity
65%
Pressure
29.8"
Wind
3 mph (WSW)
Dew Point
37°F
UV Index
3/10 (Moderate)
Visibility
5 mi

Hourly Forecast

Date & Time Mon, Nov 28
1:00 PM
Mon, Nov 28
2:00 PM
Mon, Nov 28
3:00 PM
Mon, Nov 28
4:00 PM
Mon, Nov 28
5:00 PM
Mon, Nov 28
6:00 PM
Mon, Nov 28
7:00 PM
Mon, Nov 28
8:00 PM
Mon, Nov 28
9:00 PM
Mon, Nov 28
10:00 PM
Mon, Nov 28
11:00 PM
Tue, Nov 29
12:00 AM
Tue, Nov 29
1:00 AM
Tue, Nov 29
2:00 AM
Tue, Nov 29
3:00 AM
Tue, Nov 29
4:00 AM
Tue, Nov 29
5:00 AM
Tue, Nov 29
6:00 AM
Tue, Nov 29
7:00 AM
Tue, Nov 29
8:00 AM
Tue, Nov 29
9:00 AM
Tue, Nov 29
10:00 AM
Tue, Nov 29
11:00 AM
Tue, Nov 29
12:00 PM
Tue, Nov 29
1:00 PM
Tue, Nov 29
2:00 PM
Tue, Nov 29
3:00 PM
Tue, Nov 29
4:00 PM
Tue, Nov 29
5:00 PM
Tue, Nov 29
6:00 PM
Tue, Nov 29
7:00 PM
Tue, Nov 29
8:00 PM
Tue, Nov 29
9:00 PM
Tue, Nov 29
10:00 PM
Tue, Nov 29
11:00 PM
Wed, Nov 30
12:00 AM
Wed, Nov 30
1:00 AM
Wed, Nov 30
2:00 AM
Wed, Nov 30
3:00 AM
Wed, Nov 30
4:00 AM
Wed, Nov 30
5:00 AM
Wed, Nov 30
6:00 AM
Wed, Nov 30
7:00 AM
Wed, Nov 30
8:00 AM
Wed, Nov 30
9:00 AM
Wed, Nov 30
10:00 AM
Wed, Nov 30
11:00 AM
Wed, Nov 30
12:00 PM
Condition
Clouds

Clouds

Clouds

Clouds

Clouds

Clouds

Clouds

Clouds

Clouds

Clouds

Clouds

Clouds

Clouds

Clouds

Clouds

Clouds

Clouds

Clouds

Clouds

Clouds

Clouds

Clouds

Clear

Clear

Clear

Clear

Clear

Clear

Clear

Clear

Clear

Clear

Clear

Clear

Clear

Clear

Clear

Clear

Clear

Clear

Clear

Clear

Clear

Clear

Clear

Clear

Clear

Clear
Temperature 48°F47°F47°F45°F43°F41°F40°F40°F39°F39°F39°F38°F38°F38°F38°F38°F38°F37°F37°F40°F44°F47°F50°F51°F51°F51°F50°F48°F42°F41°F40°F40°F39°F38°F38°F38°F38°F37°F37°F36°F36°F35°F36°F41°F45°F48°F49°F50°F
Feels Like 44°F43°F43°F41°F38°F35°F35°F34°F34°F34°F33°F33°F33°F33°F33°F34°F34°F37°F37°F40°F44°F47°F49°F47°F47°F47°F47°F47°F41°F41°F39°F38°F39°F38°F38°F38°F35°F37°F37°F36°F36°F35°F36°F41°F43°F45°F46°F47°F
Cloudiness 75%73%73%73%84%89%93%94%96%96%100%100%100%100%100%100%100%98%88%76%62%52%0%0%0%0%0%0%0%0%0%0%0%0%0%0%0%0%0%0%0%0%0%0%0%0%0%0%
Visibility 6 mi6 mi6 mi6 mi6 mi6 mi6 mi6 mi6 mi2 mi2 mi1 mi1 mi2 mi3 mi4 mi6 mi6 mi6 mi6 mi6 mi6 mi6 mi6 mi6 mi6 mi6 mi6 mi6 mi6 mi6 mi6 mi6 mi6 mi6 mi6 mi6 mi6 mi6 mi6 mi6 mi6 mi6 mi6 mi6 mi6 mi6 mi6 mi
Precipitation 0%0%0%0%0%0%0%0%0%0%0%0%0%0%0%0%0%0%0%0%0%0%0%0%0%0%0%0%0%0%0%0%0%0%0%0%0%0%0%0%0%0%0%0%0%0%0%0%
Humidity 65%64%64%69%75%80%85%86%89%93%92%94%94%93%93%90%84%82%80%71%60%47%38%33%31%30%30%35%42%45%48%53%58%60%60%60%61%61%62%64%66%67%64%52%45%42%40%39%
Dew Point 37°F36°F35°F36°F36°F37°F38°F38°F38°F39°F39°F39°F39°F38°F38°F37°F35°F35°F34°F34°F33°F31°F27°F25°F23°F23°F22°F23°F23°F23°F24°F26°F27°F28°F28°F27°F27°F27°F27°F27°F28°F27°F27°F27°F28°F28°F28°F28°F
Pressure 29.8"29.8"29.8"29.83"29.83"29.85"29.85"29.88"29.85"29.85"29.85"29.85"29.85"29.85"29.88"29.85"29.88"29.88"29.91"29.94"29.94"29.94"29.91"29.91"29.88"29.88"29.88"29.91"29.94"29.97"30"30.03"30.03"30.03"30.03"30.03"30.03"30.03"30.03"30.03"30.03"30.03"30.06"30.03"30.03"30"30"29.97"
Wind Speed 8.9 mph9 mph8.6 mph8.2 mph9 mph8.1 mph7.6 mph7.7 mph8.1 mph7.4 mph7.4 mph7.1 mph7.4 mph6.6 mph6 mph5.1 mph4.4 mph2.8 mph1.4 mph2.3 mph2.6 mph2.8 mph3.2 mph3.4 mph4.4 mph4.3 mph3.8 mph3.9 mph3.3 mph2.2 mph3 mph3.2 mph2.7 mph2.4 mph2.5 mph2.9 mph3.4 mph2.8 mph2.5 mph1.4 mph2.2 mph2.4 mph2.1 mph2.2 mph4.6 mph6.2 mph7.1 mph7.2 mph
Wind
Direction
187°
S
189°
S
191°
S
191°
S
183°
S
186°
S
179°
S
179°
S
179°
S
176°
S
173°
S
166°
SSE
164°
SSE
163°
SSE
156°
SSE
160°
SSE
153°
SSE
141°
SE
77°
ENE
10°
N
355°
N
322°
NW
317°
NW
327°
NNW
330°
NNW
334°
NNW
320°
NW
311°
NW
332°
NNW
36°
NE
81°
E
78°
ENE
69°
ENE
49°
NE
30°
NNE
30°
NNE
36°
NE
54°
NE
76°
ENE
101°
E
106°
ESE
107°
ESE
109°
ESE
142°
SE
197°
SSW
199°
SSW
199°
SSW
194°
SSW

Daily Forecast

Date High Low Precip. Humidity
Today
Nov 28

Clouds
48 °F
39 °F
0%
59%
Tuesday
Nov 29

Clear
51 °F
37 °F
0%
38%
Wednesday
Nov 30

Clear
50 °F
36 °F
0%
42%
Thursday
Dec 1

Clouds
40 °F
34 °F
5%
77%
Friday
Dec 2

Clouds
50 °F
37 °F
0%
73%
Saturday
Dec 3

Clouds
55 °F
40 °F
0%
51%
Sunday
Dec 4

Rain
41 °F
34 °F
81%
98%
Monday
Dec 5

Snow
41 °F
31 °F
60%
75%
Tuesday
Dec 6

Clouds
43 °F
28 °F
0%
44%
Wednesday
Dec 7

Clear
47 °F
30 °F
0%
26%
Thursday
Dec 8

Clear
51 °F
34 °F
0%
15%
Friday
Dec 9

Clouds
51 °F
35 °F
0%
14%
Saturday
Dec 10

Clear
46 °F
32 °F
0%
18%
Sunday
Dec 11

Clear
51 °F
34 °F
0%
18%
Monday
Dec 12

Clear
58 °F
39 °F
0%
15%
Tuesday
Dec 13

Clouds
61 °F
45 °F
0%
11%

Temperature 8-14 Day Outlook



Precipitation 8-14 Day Outlook




Quick Links
Lake Gregory News
Lake Gregory Photos
Lake Gregory Videos




About Us
Contact Us
Site Map
Search Site
Advertise With Us
   
Gregory.LakesOnline.com
THE LAKE GREGORY WEBSITE

Copyright 2022, Lakes Online
Privacy    |    Legal